DMSP 5D-2 F13 DEB, 40468

Orbit data source: Space-Track

DMSP 5D-2 F13 DEB, 40468 is space debris in SSO originally from a launch on Fri, 24 Mar 1995 UTC launched from the Air Force Western Test Range (AFWTR). Debris objects in space refer to the collection of defunct objects orbiting the Earth. Examples of debris include non-operational satellites, rocket bodies, and fragments generated from explosions, collisions, or faulty payload assembly.

Loading next visibility...
Identifier
40468, 1995-015BL
Orbit
SSO
Country
Flag of USUS
Related business
Manufacturer
Unknown
Mission
Spacecraft
Bus & Motor
Unknown
Mass
Unknown
Launch date (UTC)
1995-03-24 (31 years ago)
Launch vehicle
Unknown
Launch site
Air Force Western Test Range (AFWTR)
Object type
Payload
Rocket body
Debris
Shape & HBR
Unknown shape, 0.1 m
Radar Cross Section
Medium (>0.1 m² and <1 m²)

Expand to show TLE details & history
Last TLE update: 5 days ago

TLE from 5 days ago
0 DMSP 5D-2 F13 DEB
1 40468U 95015BL  26249.95673830  .00002572  00000-0  76758-3 0  9998
2 40468  98.6293 294.2593 0007105   7.0923 353.0366 14.43866756598108
Epoch: 2026-09-06T22:57Z
TLE epoch observation values (Epoch: 2026-09-06T22:57:42.189Z)
Latitude
-0.00002°
Longitude
-36.2109°
Altitude
743.676 km
Speed
7.486 km/s
True Right ascension
19h 37m 02s
True Declination
0° 00' 00"
Sunlit
Object was in full shadow at epoch
Visualization orbit readout
Latitude
Unknown
Longitude
Unknown
Altitude
Unknown
Speed
Unknown
Apparent Right ascension
Unknown
Apparent Declination
Unknown
Sunlit
N/A
Visualization observer readout
Local Sidereal Time
03:54:02
Azimuth
Unknown
Elevation
Unknown
Doppler factor
Unknown
Orbital elements
Apogee altitude
747.934 km
Perigee altitude
737.815 km
Semi-major axis
7,121.011 km
Eccentricity
0.00071
Inclination
98.6293°
RAAN
294.2593°
Arg. of periapsis
7.0923°
True anomaly
353.02672°
Mean anomaly
353.0366°
Eccentric anomaly
353.03166°
Mean motion
3.61186 °/min
Orbital period
99.67 mins
BSTAR
0.00076758
Loading maneuver chart data...
Computing Atmospheric mass density...

Documentation

Showing up to 5 results
|